Location: Skymont Scout Reservation
(35.4344°N, 85.8742°W)
Time: 20:17:36
(UTC-05:00)

ISS - All Passes

Search period start: 30 July 2014 00:00
Search period end: 09 August 2014 00:00
Orbit: 411 x 419 km, 51.6° (Epoch: 30 July)

Date Brightness Start Highest point End Pass type
(mag) Time Alt. Az. Time Alt. Az. Time Alt. Az.
30 Jul - 00:17:14 10° WNW 00:19:21 16° NNW 00:21:30 10° NNE visible
30 Jul - 05:10:40 10° NNW 05:13:24 22° NNE 05:16:07 10° E visible
30 Jul - 06:47:04 10° WNW 06:50:10 34° SW 06:53:14 10° SSE daylight
30 Jul - 21:50:39 10° SSW 21:53:37 31° SE 21:56:37 10° ENE night (unlit)
30 Jul - 23:27:36 10° W 23:30:21 23° NNW 23:33:07 10° NNE night (unlit)
31 Jul - 04:22:20 10° N 04:24:23 15° NNE 04:26:25 10° ENE visible
31 Jul - 05:58:04 10° NW 06:01:25 70° SW 06:04:44 10° SE daylight
31 Jul - 21:02:45 10° S 21:04:56 17° SE 21:07:09 10° E night (unlit)
31 Jul - 22:38:16 10° WSW 22:41:24 39° NW 22:44:34 10° NNE night (unlit)
01 Aug - 03:34:28 10° N 03:35:17 11° NNE 03:36:05 10° NE visible
01 Aug - 05:09:15 10° NW 05:12:35 59° NE 05:15:54 10° ESE visible
01 Aug - 06:47:57 10° WSW 06:48:54 11° SW 06:49:50 10° SW daylight
01 Aug - 21:49:13 10° SW 21:52:32 74° NW 21:55:52 10° NE visible
01 Aug - 23:28:26 10° NW 23:29:45 12° NNW 23:31:03 10° N night (unlit)
02 Aug - 04:20:36 10° NNW 04:23:41 32° NE 04:26:45 10° ESE visible
02 Aug - 05:57:39 10° W 06:00:14 21° SW 06:02:48 10° S daylight
02 Aug - 21:00:28 10° SSW 21:03:43 55° SE 21:06:59 10° ENE visible
02 Aug - 22:38:23 10° WNW 22:40:39 17° NNW 22:42:56 10° NNE visible
03 Aug - 03:32:05 10° NNW 03:34:42 21° NNE 03:37:18 10° E visible
03 Aug - 05:08:21 10° WNW 05:11:31 39° SW 05:14:40 10° SSE visible
03 Aug - 20:12:06 10° S 20:14:57 27° SE 20:17:50 10° ENE visible
03 Aug - 21:48:47 10° W 21:51:38 26° NNW 21:54:30 10° NNE visible
04 Aug - 02:43:46 10° N 02:45:38 14° NNE 02:47:29 10° ENE visible
04 Aug - 04:19:21 10° NW 04:22:43 81° SW 04:26:03 10° SE visible
04 Aug - 19:24:21 10° SSE 19:26:15 15° SE 19:28:10 10° E daylight
04 Aug - 20:59:29 10° WSW 21:02:40 43° NW 21:05:53 10° NE visible
05 Aug - 03:30:33 10° NW 03:33:50 52° NE 03:37:07 10° ESE visible
05 Aug - 05:08:42 10° W 05:10:12 13° SW 05:11:42 10° SSW visible
05 Aug - 20:10:28 10° SW 20:13:46 85° NW 20:17:07 10° NE visible
05 Aug - 21:49:23 10° NW 21:50:56 13° NNW 21:52:29 10° N visible
06 Aug - 02:41:53 10° NNW 02:44:53 29° NE 02:47:52 10° E night (unlit)
06 Aug - 04:18:45 10° WNW 04:21:30 23° SW 04:24:13 10° S night (unlit)
06 Aug - 19:21:45 10° SSW 19:24:56 47° SE 19:28:09 10° ENE daylight
06 Aug - 20:59:26 10° WNW 21:01:49 18° NNW 21:04:14 10° NNE visible
07 Aug - 01:53:23 10° NNW 01:55:51 19° NNE 01:58:20 10° ENE night (unlit)
07 Aug - 03:29:30 10° WNW 03:32:44 45° SW 03:35:56 10° SSE night (unlit)
07 Aug - 18:33:27 10° S 18:36:10 24° SE 18:38:54 10° ENE daylight
07 Aug - 20:09:51 10° W 20:12:47 28° NW 20:15:44 10° NNE visible
08 Aug - 01:05:06 10° N 01:06:45 13° NNE 01:08:23 10° NE night (unlit)
08 Aug - 02:40:31 10° NW 02:43:53 88° NE 02:47:14 10° SE night (unlit)
08 Aug - 17:45:54 10° SSE 17:47:27 13° SE 17:48:59 10° E daylight
08 Aug - 19:20:35 10° WSW 19:23:48 49° NW 19:27:03 10° NE daylight
